星链-36098(STARLINK-36098)

导读

STARLINK-36098是美国于2025年12月1日发射的星链系列卫星,隶属于SpaceX公司的星链卫星互联网项目。该项目旨在构建全球卫星互联网星座,为全球各地用户提供高速、低延迟的互联网接入服务。STARLINK-36098的入轨进一步扩充了星链星座规模,助力项目全球覆盖目标推进。

Basic Information
目录编号:
66816
目录名称:
STARLINK-36098
国际标识:
2025-278AB
轨道中心:
EARTH
卫星名称:
星链-36098
卫星全名:
星链-36098(STARLINK-36098)
卫星状态:
在轨 (已飞行277 天)
发射日期:
2025-12-01 UTC
国别 :
美国 (US)
星等 :
--
Orbit Information
数据来源 国际轨道数据 AOE轨道数据
星历时间 2026-09-04T12:39:08+0800
13小时前
查看轨道信息
2026-09-02T11:00:00+0800
2天前
查看轨道信息
半长轴 6861.141km 6861.14km
偏心率 0.0001515 0.0001302
轨道倾角 42.999° 42.999°
近地点辐角 281.022° 260.889°
升交点赤经 185.859° 197.543°
平近点角 79.046° 228.669°
近地点 481.964km 482.109km
远地点 484.044km 483.897km
周期 94.266分钟 94.266分钟
每日圈数 15.275951 15.275956
Detailed Information
固有亮度:
5
最大亮度:
2.5
卫星平台:
Starlink V1.0
覆盖范围:
全球
运营商:
太空探索技术公司
运营商所在国:
美国
制造商(研发单位):
太空探索技术公司
制造商所在国:
美国
使用方式:
暂无
Satellite Introduction
Starlink 计划是 SpaceX 推出的全球卫星互联网项目,通过发射低轨道卫星,为全球尤其是偏远地区提供高速、低延迟的互联网服务。自 2019 年起,Starlink 已部署数千颗卫星,旨在缩小全球数字鸿沟,推动互联网普及。该项目还为军事、航空等行业提供通信支持,带来广泛经济效益。
2D Orbit Map
3D Orbit Map
Orbit Altitude Analysis Chart
Orbit Inclination Analysis Chart
Orbit Comprehensive Analysis Chart
View Comprehensive Chart
Conjunction Data List
Event ID Objects TCA Miss Dist (km) Collision Risk Probability Collision Risk Index (CRI) Action
CDM_260906-055105-629806-681621
2026-09-06T
05:51:27+0000
0.678 km
远距离
6.046888E-5 中风险 0.71
CDM_260906-030905-751406-681621
2026-09-06T
03:09:41+0000
0.765 km
远距离
4.232858E-5 中风险 0.68
CDM_260906-145505-751406-681621
2026-09-06T
14:55:50+0000
0.786 km
远距离
3.890789E-5 中风险 0.67
CDM_260906-173705-629806-681621
2026-09-06T
17:37:36+0000
0.901 km
远距离
2.434133E-5 中风险 0.63
CDM_260905-231705-966706-681621
2026-09-05T
23:17:02+0000
0.879 km
远距离
2.333565E-5 中风险 0.62
CDM_260906-031405-941806-681621
2026-09-06T
03:14:25+0000
0.956 km
远距离
1.484058E-5 中风险 0.58
CDM_260905-143905-966706-681621
2026-09-05T
14:39:11+0000
1.108 km
极远距离
1.053969E-5 中风险 0.55
CDM_260906-115205-941806-681621
2026-09-06T
11:52:16+0000
1.175 km
极远距离
7.291295E-6 低风险 0.52
CDM_260906-044305-751406-681621
2026-09-06T
04:43:50+0000
1.504 km
极远距离
4.332876E-6 低风险 0.48
CDM_260906-101805-941806-681621
2026-09-06T
10:18:06+0000
1.397 km
极远距离
4.088857E-6 低风险 0.47